Total_Precipitation_Accumulation
2.71 2.59 3.86 4.09 3.46 2.71 2.50 2.44 2.24 2.11 2.12 2.15 1.98 1.90 1.85 1.83 1.66 1.55 1.38 1.26 1.23 1.21 1.28 1.30 1.36 1.45 1.43 1.32 1.22 1.47 1.54 1.51 1.49 1.44 1.59 1.79 1.98 2.18 2.36 2.56 2.82 3.08 2.83
2.22 2.21 3.55 3.84 3.29 2.65 2.29 2.23 2.18 2.08 2.16 2.13 2.08 1.96 1.90 1.75 1.64 1.60 1.37 1.29 1.29 1.25 1.22 1.29 1.39 1.35 1.32 1.35 1.33 1.49 1.51 1.37 1.31 1.45 1.79 2.07 2.12 2.21 2.28 2.31 2.68 2.97 2.73
1.73 1.83 2.70 3.45 3.14 2.65 2.27 2.10 2.13 2.14 2.25 2.22 2.19 2.03 1.88 1.75 1.69 1.56 1.45 1.51 1.47 1.32 1.22 1.18 1.33 1.39 1.36 1.48 1.46 1.47 1.41 1.36 1.37 1.63 2.28 3.03 2.66 2.34 2.30 2.28 2.46 2.44 2.46
1.58 1.67 2.03 2.82 2.72 2.32 2.10 2.07 2.20 2.25 2.37 2.31 2.16 1.96 1.80 1.79 1.72 1.57 1.54 1.69 1.52 1.40 1.29 1.24 1.37 1.51 1.43 1.49 1.46 1.39 1.31 1.39 1.60 1.75 2.26 2.91 3.04 2.54 2.44 2.49 2.44 2.39 2.50
1.53 1.63 2.20 2.80 2.55 2.25 2.05 2.22 2.45 2.49 2.46 2.25 2.02 1.82 1.80 1.84 1.77 1.70 1.73 1.81 1.58 1.47 1.33 1.28 1.37 1.41 1.37 1.37 1.32 1.33 1.36 1.57 1.85 1.77 2.12 2.66 3.24 3.01 2.48 2.43 2.46 2.47 2.65
1.54 1.64 2.10 2.69 2.52 2.30 2.10 2.32 2.48 2.56 2.61 2.48 2.18 1.92 1.85 1.83 1.79 1.72 1.76 1.66 1.57 1.49 1.32 1.25 1.31 1.36 1.35 1.33 1.32 1.33 1.44 1.65 1.70 1.81 2.16 2.61 3.07 3.03 2.55 2.38 2.48 2.72 2.74
1.40 1.43 1.70 2.40 2.50 2.34 2.24 2.46 2.54 2.63 2.81 2.73 2.44 2.24 2.00 1.84 1.80 1.77 1.80 1.64 1.56 1.49 1.40 1.33 1.35 1.38 1.37 1.39 1.33 1.25 1.25 1.27 1.29 1.58 1.87 2.56 2.87 2.82 2.66 2.48 2.42 2.53 2.67
1.48 1.38 1.39 2.06 2.33 2.32 2.37 2.43 2.44 2.47 2.56 2.61 2.41 2.21 1.98 1.82 1.80 1.91 1.93 1.71 1.60 1.45 1.37 1.38 1.45 1.52 1.53 1.52 1.43 1.31 1.21 0.99 0.94 1.21 1.65 2.35 2.82 2.80 2.62 2.62 2.64 2.61 2.84
1.61 1.54 1.44 1.59 1.90 2.25 2.32 2.20 2.22 2.23 2.26 2.39 2.25 2.13 1.94 1.87 1.84 1.90 1.90 1.76 1.68 1.62 1.57 1.57 1.72 1.75 1.67 1.64 1.50 1.37 1.25 0.99 0.99 1.21 1.31 2.14 2.76 2.77 2.52 2.47 2.69 2.89 2.95
1.78 1.65 1.47 1.42 1.51 1.60 1.82 1.97 2.15 2.21 2.21 2.29 2.11 1.92 1.80 1.79 1.81 1.85 1.74 1.71 1.78 1.81 1.86 1.89 1.93 1.91 1.87 1.67 1.46 1.28 1.15 0.96 1.05 1.13 1.46 2.00 2.66 2.83 2.58 2.34 2.33 2.42 2.52
1.59 1.48 1.51 1.52 1.54 1.59 1.55 1.60 1.93 2.07 2.12 2.01 1.92 1.80 1.65 1.41 1.35 1.51 1.58 1.91 2.07 2.16 2.14 2.14 2.02 1.87 1.70 1.47 1.31 1.11 0.93 0.92 1.05 1.18 1.64 2.18 2.66 2.84 2.58 2.24 2.10 2.08 2.17
1.33 1.28 1.33 1.36 1.47 1.53 1.39 1.61 1.91 1.75 1.66 1.43 1.45 1.32 1.38 1.33 1.28 1.10 1.32 1.81 2.00 1.99 1.94 1.97 1.94 1.67 1.35 1.02 0.96 0.90 0.81 0.79 0.85 1.02 1.63 2.37 2.71 2.80 2.50 2.29 2.21 2.15 2.20
1.13 1.08 1.03 1.08 1.14 1.27 1.44 1.69 1.98 2.04 1.85 1.63 1.39 1.31 1.35 1.28 1.18 1.05 1.06 1.25 1.39 1.42 1.26 1.26 1.26 1.13 1.03 0.95 0.92 0.81 0.77 0.75 0.83 1.01 1.72 2.39 2.71 2.84 2.66 2.49 2.47 2.52 2.49
0.93 1.02 0.84 0.75 0.89 1.06 1.18 1.31 1.60 1.66 1.59 1.48 1.28 1.19 1.29 1.33 1.21 1.15 1.14 1.18 1.20 1.18 1.20 1.17 1.22 1.18 1.00 0.90 0.91 0.94 0.90 0.85 0.93 1.18 1.74 2.25 2.66 2.96 2.89 2.77 2.77 2.78 2.89
0.97 0.98 0.88 0.76 0.74 0.82 0.87 0.98 1.13 1.29 1.37 1.39 1.36 1.17 1.18 1.31 1.28 1.25 1.18 1.22 1.10 1.02 1.09 1.17 1.20 1.22 1.12 0.97 0.91 0.93 1.01 0.94 0.96 1.12 1.44 1.92 2.47 2.95 3.18 3.13 2.93 2.77 2.81
0.93 1.01 0.94 0.82 0.80 0.82 0.79 0.78 0.78 0.93 1.10 1.22 1.26 1.17 1.19 1.29 1.31 1.37 1.30 1.22 1.16 1.07 1.10 1.28 1.25 1.27 1.24 1.17 1.00 1.00 1.03 0.98 0.98 1.02 1.18 1.56 1.94 2.39 2.94 3.34 3.16 2.86 2.63
0.90 0.96 1.00 0.94 0.94 0.93 0.89 0.85 0.71 0.74 0.85 1.01 1.16 1.16 1.23 1.21 1.15 1.23 1.25 1.19 1.16 1.17 1.20 1.25 1.29 1.37 1.28 1.18 1.13 1.09 1.07 1.02 0.96 1.01 0.98 1.14 1.28 1.69 2.23 2.71 3.01 3.03 2.88
0.91 0.98 1.06 1.03 1.05 1.06 1.06 1.03 0.95 0.97 1.04 1.11 1.27 1.25 1.21 1.25 1.22 1.21 1.25 1.23 1.26 1.29 1.28 1.32 1.40 1.39 1.35 1.34 1.29 1.25 1.12 1.08 1.03 1.02 0.97 0.98 1.07 1.12 1.40 1.73 2.15 2.55 2.78
0.85 0.90 0.96 1.05 1.09 1.11 1.14 1.23 1.33 1.35 1.34 1.34 1.41 1.35 1.24 1.25 1.30 1.42 1.45 1.45 1.41 1.43 1.43 1.37 1.40 1.34 1.34 1.35 1.27 1.29 1.24 1.20 1.13 1.00 1.02 1.00 1.02 0.99 1.07 1.10 1.29 1.54 1.94
0.76 0.81 0.89 0.96 1.15 1.26 1.31 1.32 1.48 1.52 1.56 1.62 1.66 1.51 1.38 1.43 1.55 1.74 1.82 1.71 1.67 1.66 1.64 1.58 1.63 1.53 1.41 1.45 1.34 1.32 1.29 1.19 1.22 1.18 1.16 1.10 1.14 1.09 1.03 0.95 0.96 0.91 1.17
0.63 0.68 0.78 0.85 1.00 1.11 1.19 1.32 1.54 1.71 1.87 1.96 2.01 1.88 1.74 1.72 1.87 2.02 1.94 2.02 2.03 1.89 1.88 1.93 1.97 1.94 1.75 1.62 1.67 1.56 1.32 1.14 1.21 1.17 1.17 1.22 1.23 1.31 1.31 1.15 1.01 0.96 0.96
0.41 0.46 0.56 0.70 0.75 0.88 1.07 1.33 1.55 1.85 1.94 2.02 2.09 2.09 1.99 1.94 2.09 2.13 2.20 2.29 2.32 2.32 2.25 2.13 2.24 2.39 2.13 1.90 2.00 2.29 1.92 1.58 1.22 1.00 1.11 1.20 1.24 1.47 1.51 1.29 1.08 1.03 1.03
0.34 0.36 0.44 0.58 0.74 0.98 1.22 1.53 1.80 2.10 2.22 2.29 2.25 2.26 2.25 2.26 2.31 2.35 2.40 2.45 2.47 2.33 2.32 2.43 2.55 2.89 2.69 2.32 2.10 2.39 2.25 1.95 1.66 1.21 1.10 1.18 1.26 1.40 1.50 1.54 1.42 1.31 1.22
0.32 0.38 0.50 0.70 0.93 1.21 1.56 1.91 2.17 2.43 2.58 2.42 2.40 2.40 2.37 2.29 2.29 2.40 2.40 2.38 2.34 2.28 2.34 2.42 2.48 2.90 3.10 2.80 2.45 2.03 1.83 1.80 1.92 1.66 1.24 1.17 1.26 1.28 1.37 1.46 1.43 1.50 1.46
0.45 0.54 0.72 0.99 1.30 1.59 1.84 2.03 2.28 2.42 2.43 2.39 2.36 2.36 2.27 2.22 2.19 2.20 2.19 2.27 2.28 2.31 2.37 2.54 2.67 2.95 2.98 2.97 2.78 2.55 2.32 2.01 1.68 1.78 1.74 1.44 1.37 1.28 1.36 1.47 1.51 1.61 1.64
0.64 0.80 0.99 1.18 1.49 1.68 1.82 1.94 2.09 2.23 2.29 2.29 2.29 2.33 2.32 2.28 2.16 2.08 2.02 2.09 2.21 2.34 2.39 2.47 2.63 2.90 3.01 3.10 3.02 2.74 2.62 2.46 2.19 2.09 1.86 1.70 1.67 1.43 1.38 1.43 1.46 1.58 1.74